sat.trackr.live / text

‹ back to catalog

JILIN-1 GAOFEN 3D28

NORAD 52445 · 2022-048C

PAYLOAD ACTIVE UNKNOWN

§ Identity

Operator
Country
PRC
Launch date
2022-05-05
Launch site
TAISC
Launch vehicle
Mass (kg)
RCS (m²)

External: N2YO · Heavens-Above · Gunter

§ Orbital elements

Epoch: 2026-08-19T08:11:49.766208Z

Period
87.97 min
Inclination
97.5665°
Eccentricity
0.0012881
Mean motion
16.36995988 rev/d
Perigee alt
165.4 km
Apogee alt
182.2 km
Semi-major
6,551.9 km
B*
7.6023e-4
RAAN
352.9597°
Arg perigee
270.7055°
Mean anomaly
89.2766°
Rev number
23,958

§ Raw data

JILIN-1 GAOFEN 3D281 52445U 22048C   26231.34154822  .06872821  26340-5  76023-3 0  99942 52445  97.5665 352.9597 0012881 270.7055  89.2766 16.36995988239585

JSON: /api/v1/satellites/52445 · /tle

For live sub-satellite position, see the globe view (requires WebGL).

§ Visibility from observer

Set your observer location to see the next 7 days of passes ≥ 10°. The values pass through the URL so the page stays shareable.

No JS? Fill the form by hand. The geolocation button needs JavaScript.

§ Radio — SatNOGS DB

ModeDescriptionDownlinkUplink
FM Jillin Mysterious Pip 1.616 GHz

1 transmitter · refreshed weekly from db.satnogs.org